Location: Stilling
(56.0622°N, 9.9882°E)
Time: 12:48:10
(UTC+00:00)

Cosmos 1992 Rocket - Pass Details

Date: 13 July 2020
Orbit: 758 x 766 km, 74.0° (Epoch: 06 August)

Event Time Altitude Azimuth Distance (km) Brightness Sun altitude
Rises 23:24:14 0° 331° (NNW) 3,248 8.4 -12.3°
Reaches altitude 10° 23:26:37 10° 331° (NNW) 2,319 7.5 -12.3°
Maximum altitude 23:31:53 88° 244° (WSW) 776 4.0 -12.3°
Enters shadow 23:36:31 14° 155° (SSE) 2,066 5.7 -12.3°
